GFSNIL_850_spd_174.txt.gz
Wind_Speed
10 10 12 15 18 20 21 21 20 20 20 20 20 19 19 20 19 18 18 18 18 18
10 13 15 17 20 21 22 22 23 23 23 22 21 21 21 21 20 20 20 20 20 20
12 15 17 20 21 22 23 24 24 24 24 24 23 22 22 22 22 22 22 22 22 23
16 19 20 22 22 22 23 23 24 24 23 22 22 22 23 23 23 24 24 24 24 24
19 21 21 20 21 21 22 22 22 22 22 22 21 21 21 23 23 24 24 25 25 26
18 19 19 21 22 22 22 22 21 21 22 21 20 21 21 22 22 23 24 24 24 25
19 20 21 21 22 22 22 22 22 22 22 23 23 22 22 22 22 21 22 22 23 23
21 22 23 23 23 22 22 22 22 22 21 21 22 22 22 21 22 22 22 21 21 22
22 23 23 23 22 22 21 21 20 20 21 20 20 19 21 22 23 23 22 21 19 19
21 21 21 21 21 21 21 22 22 21 20 20 20 19 19 20 21 22 21 20 19 18
20 19 19 20 21 21 22 23 23 22 21 20 20 20 20 20 21 20 20 19 17 17
20 21 20 21 22 22 23 22 22 22 21 21 21 19 21 20 20 20 18 17 18 17
21 21 21 21 22 22 23 23 22 21 19 19 20 20 21 22 21 21 18 16 15 16
22 22 22 23 23 24 23 23 22 20 19 18 17 18 19 19 20 21 21 18 17 16

GFSNIL_850_spd_177.txt.gz
Wind_Speed
6 7 10 12 13 15 18 19 19 20 20 20 20 20 20 19 19 18 19 20 19 18
7 10 11 13 16 18 19 20 20 21 22 21 21 20 20 21 20 20 20 19 20 21
10 11 14 17 19 20 20 20 21 21 21 20 20 20 20 20 20 22 22 22 22 21
13 16 18 18 18 17 18 19 19 20 20 20 19 19 19 19 20 22 23 23 24 24
16 17 17 16 17 19 20 20 20 20 21 21 20 19 19 20 19 21 22 22 23 25
16 16 17 18 19 20 21 21 21 21 21 21 21 20 20 21 21 21 21 22 23 23
16 17 18 19 20 21 22 22 22 21 20 20 20 19 20 20 21 21 21 20 22 23
19 20 21 22 22 22 22 22 22 21 20 20 19 19 19 20 20 21 22 20 20 20
21 22 22 22 22 22 21 21 22 22 22 22 21 20 20 21 22 21 22 21 19 18
24 23 22 22 22 21 21 21 22 22 23 22 21 20 20 19 20 22 21 20 19 18
24 23 22 22 22 22 23 23 23 22 21 21 19 19 19 20 20 20 20 20 19 18
23 24 25 24 23 22 23 23 23 22 21 20 19 18 19 20 21 22 21 19 17 17
23 24 24 23 23 23 23 24 23 23 21 19 19 16 17 19 21 21 21 19 17 16
25 25 23 23 22 23 23 23 22 22 20 19 18 18 18 18 20 21 20 18 18 17

GFSNIL_850_spd_183.txt.gz
Wind_Speed
6 6 8 10 12 14 17 19 20 20 20 20 20 21 21 22 21 22 22 21 21 21
6 8 11 13 15 18 21 22 21 20 20 21 21 21 22 23 23 22 21 21 22 22
9 12 14 16 19 20 20 19 19 19 21 22 22 22 23 23 23 24 22 21 22 22
12 14 16 19 20 20 19 19 19 20 21 22 23 23 23 23 24 24 24 23 23 24
15 17 18 19 19 20 20 21 21 22 23 23 23 23 23 24 24 24 24 24 24 24
17 19 19 20 20 21 22 23 23 24 24 24 24 24 24 24 24 24 24 24 24 24
19 19 20 21 22 23 24 24 25 25 25 25 25 25 25 25 25 25 24 24 24 24
19 20 22 23 24 25 26 26 27 28 28 27 27 26 26 25 25 25 25 24 24 23
20 22 23 25 26 26 26 27 28 28 28 27 27 26 25 25 26 25 25 25 24 24
27 27 27 27 26 27 29 29 29 28 28 28 27 26 26 25 25 25 24 24 24 25
30 29 28 28 29 30 30 29 29 28 28 29 29 27 27 25 25 24 22 21 22 23
26 30 31 33 33 32 32 30 30 29 28 28 28 25 25 24 23 23 22 20 20 21
25 26 29 30 31 31 29 28 28 28 26 25 26 24 23 21 22 24 23 21 22 21
24 23 24 25 26 27 28 28 28 28 27 26 24 22 21 19 20 21 23 25 25 22

GFSNIL_850_spd_186.txt.gz
Wind_Speed
6 5 6 8 10 12 15 18 20 20 19 18 18 18 19 20 20 21 20 21 21 21
5 6 8 10 12 15 17 18 19 18 18 19 20 20 21 22 23 23 22 21 21 22
7 9 11 13 15 17 18 18 18 19 19 20 21 22 22 22 22 23 23 23 22 23
9 11 14 16 17 18 19 19 20 20 21 22 23 23 24 23 23 24 24 24 24 23
10 13 15 17 18 19 20 21 21 22 23 23 24 24 25 25 25 25 25 25 25 25
12 15 17 18 19 20 21 21 22 23 24 24 25 25 25 26 26 26 26 26 26 26
15 17 18 19 20 22 23 24 25 26 27 27 28 28 28 28 28 27 27 27 27 27
16 18 21 23 24 25 26 27 28 29 30 30 30 29 30 29 29 29 29 28 28 27
20 23 26 26 26 26 27 28 29 30 32 32 31 31 30 30 31 30 30 29 28 27
22 24 23 25 29 30 31 31 31 31 32 32 31 30 31 31 31 30 28 27 27 26
25 26 24 25 27 29 31 31 32 32 30 31 30 29 29 29 30 30 29 26 25 25
22 24 24 26 28 29 31 31 31 31 31 31 30 27 27 27 27 27 28 27 24 24
24 25 27 28 29 30 30 31 31 31 30 29 29 28 26 25 26 27 26 25 25 25
26 28 29 31 32 32 33 34 35 35 35 34 31 30 27 25 24 24 25 27 27 25

GFSNIL_850_spd_189.txt.gz
Wind_Speed
4 3 3 3 5 8 11 14 16 17 17 17 17 17 18 19 20 20 20 19 19 21
3 2 4 6 9 11 14 15 16 17 18 19 19 19 19 20 20 20 20 21 21 21
2 4 7 9 11 13 14 16 17 18 18 19 19 20 21 21 21 21 22 23 23 23
4 6 8 10 12 13 15 16 17 18 19 21 22 22 23 23 23 24 24 25 25 25
5 7 10 12 14 15 17 18 19 20 21 22 23 24 25 25 26 27 27 27 27 26
8 10 13 15 16 18 19 20 21 23 24 25 26 27 28 29 29 29 29 28 28 28
11 13 15 16 18 20 22 24 24 25 27 28 29 29 30 31 31 31 30 30 30 30
12 14 17 20 22 23 24 25 26 28 29 29 30 30 30 30 31 31 32 31 31 31
15 18 20 22 24 24 25 26 27 28 29 30 30 30 30 31 33 32 32 33 32 31
19 21 22 21 21 22 24 26 27 28 29 30 29 28 28 29 30 31 32 32 31 31
15 16 18 20 23 25 26 28 30 31 31 32 31 29 28 28 29 30 29 29 29 28
18 21 24 25 27 29 31 32 33 34 34 34 34 31 31 31 31 30 28 27 27 26
22 25 28 30 32 33 34 36 36 37 36 35 35 34 32 32 32 33 32 31 28 26
28 31 32 34 35 36 37 38 38 37 37 35 33 32 30 30 30 30 30 30 32 33

GFSNIL_850_spd_192.txt.gz
Wind_Speed
7 5 4 3 2 4 7 9 11 13 14 15 16 16 17 17 18 18 19 19 19 19
6 5 2 2 4 6 9 11 13 14 16 16 17 17 18 18 19 20 20 21 21 22
5 3 2 4 6 8 11 13 14 15 16 17 18 18 19 20 21 21 22 24 24 24
4 2 3 5 8 10 12 13 14 16 17 19 20 21 22 23 24 25 26 27 28 27
1 2 4 6 9 11 13 15 16 18 20 21 23 24 25 26 27 28 29 28 29 30
1 3 6 8 11 14 17 19 21 22 23 24 26 27 28 29 30 30 30 30 31 32
4 7 10 13 15 17 20 21 21 22 24 25 26 26 28 29 30 30 30 31 32 32
8 10 12 15 17 19 19 20 21 23 23 24 26 26 27 28 30 30 30 30 30 31
10 12 14 16 16 17 18 20 22 24 25 26 27 27 27 28 30 30 28 28 30 31
10 12 12 14 16 19 21 23 25 26 27 29 29 28 28 29 31 32 30 30 31 31
9 11 14 17 20 23 25 27 28 29 29 30 32 31 29 28 30 31 30 32 30 29
12 16 20 23 26 28 30 30 31 32 34 35 36 34 32 29 30 28 27 27 26 28
17 21 24 28 31 33 36 37 37 38 37 38 39 36 32 28 28 25 27 27 26 27
22 26 29 33 36 38 38 38 37 38 38 37 35 34 29 27 26 23 25 26 29 25